User: anonymous   Login
Location: Unspecified
(0.0000°N, 0.0000°E)
Time: 11:33:00
(UTC+00:00)
Language:

Tiros 1 - Orbit

View from above orbital plane
View from above orbital plane
View from above satellite
View from above satellite

Ground track
Ground track

The orbit data is extracted from the following two-line orbital elements,

1 00029U 60002B   16208.43923449 -.00000084  00000-0  18486-4 0  9998
2 00029  48.3786 178.3160 0024860 270.1583  89.6480 14.74078646  8843
Epoch (UTC): 26 July 2016 10:32:29
Eccentricity: 0.0024860
inclination: 48.3786°
perigee height: 630 km
apogee height: 665 km
right ascension of ascending node: 178.3160°
argument of perigee: 270.1583°
revolutions per day: 14.74078646
mean anomaly at epoch: 89.6480°
orbit number at epoch: 884

The dashed part of the orbit path shows where the satellite is in the earth's shadow,  

DLR